Zurück zum Katalog

CZ-6A DEB

AktivPO
NORAD 60664·DEBRIS·🇨🇳 China

Gestartet Aug 6, 2024 von Taiyuan Satellite Launch Center

Loading…

Nächste Überflüge (nächste 24 Stunden)

TLE

AktuellSource: Space-Track

Epoche: Sep 14, 2026, 00:44 UTC

1 60664U 24140BR  26257.03116482  .00000652  00000-0  14078-3 0  9996
2 60664  89.0329 263.3767 0111003 326.5487  32.8741 14.53418687111184

Verfolge CZ-6A DEB in Echtzeit mit AllMySat

Download on the App Store